ECMWFNIL_250_spd_105.txt.gz
Wind_Speed
86 88 89 91 92 94 95 95 96 98 99 100 102 103 104 105 105 105 105 105 105 105 105 105 105 104 103 103 103 103 104 105 106 108 109 110 111 112 113 115 116 118
84 85 87 88 89 90 91 92 92 93 94 96 97 99 101 102 102 103 103 104 104 105 106 106 105 104 103 102 101 100 100 101 101 102 103 104 105 107 108 110 112 113
82 83 85 86 87 88 88 89 89 89 90 92 93 95 97 98 99 99 100 101 102 103 105 105 105 104 103 102 101 100 99 99 99 98 98 99 100 101 102 104 106 108
80 82 83 84 85 86 86 86 86 87 88 89 90 92 93 94 95 96 97 98 99 101 102 103 103 102 102 101 100 99 98 97 97 96 95 96 96 97 98 99 100 102
79 81 82 83 84 85 85 85 85 85 86 87 88 89 90 90 91 92 93 95 96 98 99 100 100 99 99 98 97 97 96 96 95 94 94 94 94 95 95 96 97 98
79 81 82 83 83 84 84 84 85 85 85 85 86 86 87 87 87 88 90 92 93 94 95 96 96 95 95 94 94 93 93 93 93 92 92 93 93 93 94 94 95 96
79 80 81 82 83 84 84 84 84 84 84 83 84 85 85 85 85 86 87 89 90 91 91 91 91 90 90 90 89 89 89 89 89 89 90 91 91 92 92 93 93 94
79 80 81 82 83 83 84 84 84 84 83 82 82 83 84 84 84 84 85 86 86 86 87 86 86 85 85 85 85 85 85 85 86 86 87 88 89 89 90 91 91 93
78 79 80 82 83 83 84 84 84 83 82 81 81 82 83 83 83 83 83 83 83 83 83 83 82 81 81 80 80 80 81 82 83 83 84 85 86 87 88 88 89 90
78 79 80 82 83 83 83 84 83 83 82 81 80 81 82 83 83 82 82 81 81 81 80 80 79 78 77 77 76 77 77 79 79 80 81 82 83 84 85 85 86 87
79 80 81 82 83 83 84 84 83 82 81 80 80 80 82 82 82 81 80 80 79 79 78 78 77 76 75 74 73 74 74 75 76 77 78 79 80 81 82 83 83 84
79 80 81 83 83 84 84 84 84 83 81 80 79 80 81 82 82 81 79 78 78 77 76 76 75 74 73 72 71 72 72 73 73 75 76 76 77 78 79 80 81 81
80 81 82 83 84 84 85 85 84 83 82 80 80 80 81 82 81 80 78 77 76 75 75 74 73 72 71 70 70 70 70 70 71 72 73 74 75 75 76 77 77 78
80 81 82 84 84 85 85 85 85 84 82 81 80 81 81 82 82 80 77 75 75 74 73 72 71 70 69 69 69 69 69 69 69 70 71 72 72 73 73 74 74 75
80 81 83 84 84 85 86 86 85 84 83 81 80 81 81 82 81 80 76 74 74 73 72 71 70 68 68 68 68 68 67 67 68 69 69 70 70 70 70 71 72 73
81 82 84 84 85 85 86 87 86 85 83 81 81 81 81 81 81 79 76 73 73 73 71 70 69 67 66 67 67 66 66 66 67 68 67 67 67 67 68 69 70 70
82 83 84 85 85 86 87 87 86 85 83 81 81 82 82 82 81 79 76 72 72 72 71 70 68 66 65 66 66 65 64 65 67 67 66 65 64 65 65 66 67 67
82 84 85 85 86 86 87 87 86 85 83 81 81 82 82 82 81 79 76 72 71 71 70 69 67 65 64 65 65 64 63 63 66 67 65 64 63 63 63 64 64 64
83 84 85 86 86 87 87 87 86 84 82 81 81 82 82 82 80 79 76 72 70 70 69 68 66 64 63 64 64 63 62 62 65 65 64 63 62 61 62 62 62 62
84 85 86 86 87 87 87 87 86 84 82 81 82 82 82 81 80 78 76 72 70 69 68 67 65 63 62 63 63 61 61 62 64 64 62 61 61 61 61 60 60 59
85 85 86 87 87 87 87 87 86 84 83 82 82 83 82 81 80 78 76 72 70 68 67 66 64 62 61 62 61 60 59 61 63 63 61 60 60 60 59 59 58 57
85 86 86 87 87 87 87 87 85 84 83 82 82 82 82 81 79 78 76 72 70 67 66 65 64 61 59 60 60 58 58 60 62 62 60 59 59 59 58 57 55 55
86 86 87 87 87 87 87 86 85 84 83 82 82 82 82 80 78 77 76 72 69 67 65 65 64 60 58 59 59 57 57 58 60 60 59 58 58 59 58 56 54 53
87 87 87 87 88 87 87 86 85 84 83 82 82 81 81 79 77 76 75 72 69 67 65 64 63 60 57 56 57 56 55 56 58 59 58 57 58 59 57 55 53 52
87 88 88 88 88 87 87 86 84 84 83 82 81 80 79 78 76 75 75 72 68 66 64 62 62 60 56 55 55 55 53 54 55 56 56 57 58 58 57 54 53 51
88 88 88 88 88 87 86 85 84 83 83 82 80 79 78 77 75 73 73 72 68 65 63 61 60 59 57 54 54 54 52 51 53 54 54 55 58 58 56 54 53 51

ECMWFNIL_250_spd_111.txt.gz
Wind_Speed
75 76 76 77 77 78 78 78 78 79 80 82 82 83 84 85 85 86 87 89 90 91 92 92 93 94 95 96 97 98 99 100 101 102 103 103 104 104 105 105 105 106
77 77 77 78 78 78 78 78 78 79 81 82 82 83 83 84 85 86 87 89 90 90 91 92 93 94 95 96 96 97 98 99 100 101 101 101 102 102 103 103 104 104
78 78 78 78 79 79 79 78 79 80 81 81 82 83 83 84 85 86 88 89 89 90 91 92 93 94 94 95 95 96 97 98 98 99 99 99 100 100 101 102 103 103
79 80 80 79 79 79 79 79 79 80 81 81 82 82 82 84 85 86 88 88 89 90 91 92 93 94 94 94 94 95 95 96 97 97 97 97 98 99 99 101 101 102
81 81 81 81 80 80 79 79 80 81 81 81 81 82 82 84 85 86 87 88 89 90 91 92 93 93 94 94 94 94 95 95 95 95 95 95 96 97 98 99 100 100
82 82 82 82 81 80 80 80 81 81 81 81 81 82 83 84 85 86 86 88 89 90 91 92 93 93 93 93 93 93 94 94 93 93 93 94 94 95 96 98 98 99
83 83 83 83 82 81 81 81 82 81 81 81 81 83 84 85 85 86 86 88 89 90 91 92 92 93 93 92 92 92 92 92 91 92 92 93 93 94 95 96 97 97
84 83 83 83 82 82 82 82 82 82 81 81 82 84 85 85 85 86 87 88 89 91 92 92 92 92 92 91 91 91 90 90 90 90 91 91 92 93 94 95 96 96
84 83 83 82 82 82 82 82 82 82 82 82 83 84 85 85 85 86 87 89 90 91 92 92 91 91 91 90 90 89 89 89 89 89 90 90 91 92 93 94 94 95
84 83 82 82 82 82 82 82 82 82 82 83 84 84 85 85 86 87 88 89 90 91 91 91 91 90 90 89 89 88 88 88 88 88 88 89 90 91 92 93 94 94
84 83 82 82 83 82 82 82 82 82 83 84 84 84 84 85 86 87 89 90 91 91 91 91 90 90 89 89 88 88 88 88 87 87 87 88 89 90 91 92 93 92
84 83 83 83 83 83 83 83 83 84 84 84 85 85 85 86 87 88 89 90 91 91 91 90 90 90 89 89 89 88 88 87 86 86 86 87 88 90 91 91 91 90
84 84 83 83 83 83 83 84 84 84 85 85 85 85 85 86 87 88 89 90 91 91 91 90 90 90 90 89 89 88 87 86 85 85 85 86 87 89 90 90 90 89
85 84 83 83 83 84 84 85 85 85 85 85 85 85 86 87 88 89 90 91 91 91 91 90 90 90 90 90 89 88 87 85 84 84 85 86 87 88 89 89 88 86
85 84 83 83 83 84 85 85 86 86 86 85 85 86 86 87 88 89 90 91 91 91 90 90 90 90 90 89 88 87 86 84 83 84 84 85 86 86 87 87 86 84
85 84 83 83 84 85 86 87 87 86 86 86 86 86 86 87 88 90 91 91 91 90 90 89 89 90 90 89 88 86 85 83 82 83 84 85 85 85 85 85 84 81
85 84 84 84 85 86 87 87 87 87 87 86 86 86 87 88 89 90 91 91 90 89 89 89 89 90 89 88 87 86 84 82 80 81 83 84 84 84 84 83 82 80
86 85 85 85 86 88 88 88 88 88 87 87 87 87 88 89 90 90 91 90 89 88 88 88 89 90 88 87 86 86 84 82 79 79 80 81 82 82 81 81 81 79
87 86 86 87 88 89 89 89 89 89 88 88 87 87 88 89 90 90 90 89 88 87 87 88 89 89 87 86 85 85 84 82 79 78 78 78 79 79 78 78 79 78
88 87 87 88 89 89 89 90 90 89 88 88 87 88 88 89 90 90 89 88 87 87 87 87 88 88 86 85 84 84 83 80 78 77 77 77 77 76 75 76 76 76
89 88 88 89 89 89 90 90 90 89 88 87 87 87 88 89 89 89 87 86 86 86 85 85 86 86 85 84 83 83 81 79 77 77 76 76 75 74 74 74 74 73
89 89 89 89 89 89 89 90 90 89 88 87 87 87 88 88 88 87 86 85 85 85 84 84 85 85 84 83 82 81 79 76 75 76 76 75 74 73 73 73 71 69
90 89 89 89 89 89 89 89 89 88 87 87 86 87 88 88 87 85 84 85 85 84 83 83 83 84 83 82 81 79 76 74 74 74 75 74 73 72 71 70 68 66
90 90 89 89 89 89 89 89 89 87 87 86 86 87 87 86 85 84 83 84 84 83 83 82 82 83 82 80 79 77 75 72 72 73 73 72 71 70 69 67 65 62
91 90 89 89 89 89 89 89 88 87 86 86 86 86 86 85 83 82 83 84 83 83 82 82 81 82 81 79 77 75 73 71 71 71 71 70 70 68 66 64 61 59
91 90 90 89 89 89 89 88 87 86 85 86 86 85 85 83 82 82 82 83 83 82 82 82 81 80 79 77 74 73 72 70 69 69 69 68 67 66 64 61 59 56

ECMWFNIL_250_spd_117.txt.gz
Wind_Speed
81 82 83 84 85 86 88 89 89 90 91 92 94 95 96 97 99 100 102 103 104 105 106 106 106 104 102 100 99 98 96 96 95 95 95 95 95 96 96 97 97 98
82 83 84 85 86 87 89 90 91 91 92 94 96 97 98 99 100 102 103 105 106 107 107 107 107 105 103 101 99 98 97 96 95 96 95 95 95 95 95 96 97 98
82 84 85 85 86 88 89 91 92 93 94 96 97 99 101 101 102 104 105 107 108 108 108 108 107 106 104 101 100 98 97 96 96 96 95 95 94 94 94 95 96 98
83 84 85 86 87 89 90 92 93 95 96 98 99 101 103 104 105 106 107 108 109 109 109 108 107 106 103 101 100 98 97 97 96 96 95 94 94 94 94 95 97 98
83 84 85 86 88 90 92 93 94 96 98 100 102 104 105 106 107 109 110 110 110 110 109 108 107 105 103 101 99 98 98 98 97 96 95 94 94 94 95 96 97 98
84 85 86 87 89 91 93 95 97 99 100 102 104 106 107 108 110 111 111 111 110 109 108 107 106 104 102 100 99 99 99 98 97 96 95 95 95 95 96 96 97 97
84 85 87 89 90 93 95 98 100 101 103 105 107 108 110 110 111 112 112 111 110 109 107 105 104 103 102 100 99 99 99 98 97 96 95 95 96 96 97 96 96 97
84 86 89 91 93 96 98 101 103 104 106 108 109 111 112 112 112 112 112 110 109 108 106 105 104 103 102 101 100 100 99 98 97 96 96 96 96 97 97 96 96 97
88 90 92 95 97 99 101 103 105 107 109 110 111 112 112 112 112 111 110 109 108 107 106 105 104 103 103 102 101 100 99 98 97 97 97 97 97 97 96 96 96 96
92 94 96 98 100 102 104 106 108 110 111 112 112 112 112 111 110 109 108 108 107 106 106 105 105 104 104 103 102 101 100 99 98 98 98 97 97 96 96 96 96 96
96 98 100 102 104 105 107 109 110 111 111 111 111 111 110 109 108 107 107 107 107 106 106 106 106 106 105 104 103 102 101 100 99 99 98 97 96 96 96 96 96 96
100 102 104 105 107 108 109 110 111 111 110 110 109 109 108 107 107 106 107 107 107 107 107 107 107 107 106 105 104 103 102 101 100 99 98 97 96 95 96 96 96 96
104 105 107 108 109 110 110 111 110 109 108 107 107 107 106 106 106 106 107 107 107 107 107 108 108 107 106 105 104 103 102 101 100 99 97 96 96 95 95 95 95 95
107 108 109 110 110 110 110 109 108 107 106 105 105 105 106 106 106 106 106 107 107 107 107 107 107 107 106 105 104 103 101 100 99 98 96 95 95 94 94 94 95 95
109 110 110 110 110 109 109 107 106 105 105 104 104 105 105 105 106 106 106 106 107 107 107 107 106 105 105 104 103 102 100 99 98 97 95 94 93 93 93 94 94 93
111 110 110 110 109 108 107 106 105 105 104 104 105 105 105 105 105 105 106 106 106 106 105 105 104 104 103 103 102 100 98 97 96 95 94 93 92 92 92 93 92 92
111 110 109 108 107 106 106 105 105 105 104 105 105 105 105 105 105 105 105 105 104 104 103 103 102 102 102 101 99 97 96 95 94 93 92 91 91 91 91 91 90 90
110 109 108 107 106 106 105 105 105 105 105 104 104 104 104 104 104 104 103 103 102 102 101 100 100 100 100 98 96 94 93 93 91 90 89 89 89 89 89 88 88 87
108 108 107 106 106 105 105 105 105 104 104 104 104 104 103 103 103 102 101 101 100 99 98 97 97 97 97 95 93 92 91 90 88 86 86 86 86 87 87 87 86 85
107 106 106 106 105 105 105 105 104 104 104 103 103 103 102 101 101 100 99 98 97 96 95 94 94 95 94 92 90 89 88 87 85 83 83 83 83 84 84 85 85 85
106 106 105 105 105 104 104 104 104 103 103 102 101 101 100 99 98 97 96 95 94 93 92 92 92 92 91 90 88 86 85 83 81 81 81 81 81 81 82 82 82 82
106 106 105 104 104 104 103 103 103 102 101 100 99 98 97 96 95 94 93 92 91 91 90 90 90 90 89 87 85 83 82 80 79 79 79 79 79 80 80 80 80 80
106 105 105 104 103 103 103 102 101 100 99 98 97 96 94 93 92 91 90 90 89 89 88 87 87 87 86 84 81 80 79 78 77 77 77 77 78 79 79 79 79 79
106 105 104 103 103 102 102 100 99 98 96 95 94 93 92 91 90 89 88 87 87 86 85 84 84 84 83 81 79 77 76 76 75 75 75 77 78 78 78 78 78 79
105 104 103 102 102 101 99 98 96 95 94 93 92 90 89 88 88 86 85 84 84 83 82 82 81 81 80 78 76 75 74 74 74 74 75 77 78 78 78 78 78 79
104 103 102 101 100 98 96 95 94 93 91 90 89 88 87 86 85 84 82 81 81 80 80 79 78 78 78 77 75 74 74 74 74 75 76 77 77 77 77 76 77 78

ECMWFNIL_250_spd_120.txt.gz
Wind_Speed
82 83 83 84 84 85 86 87 87 87 86 86 86 87 88 89 91 93 94 96 97 99 100 101 102 103 105 106 108 109 111 112 115 117 119 121 122 122 122 123 122 122
80 81 82 83 83 84 85 85 86 85 85 85 86 86 87 88 90 91 93 95 98 100 102 103 104 106 107 109 111 112 114 115 117 119 121 123 123 123 123 122 122 121
79 80 81 82 83 83 84 85 85 85 86 86 86 86 87 88 89 91 93 95 98 101 104 106 108 109 111 112 114 116 117 118 120 121 123 123 123 122 121 120 120 119
78 79 80 80 81 81 82 83 83 85 86 87 87 88 89 90 91 93 95 97 100 104 106 109 111 113 114 116 117 118 119 120 121 122 122 122 121 120 118 117 116 116
78 78 78 79 79 80 82 82 84 86 88 90 91 92 93 94 96 97 99 101 104 107 109 111 113 115 117 118 119 119 120 120 120 120 119 119 118 116 115 113 112 113
78 78 79 80 81 82 84 86 88 90 92 94 96 97 99 100 101 102 103 105 108 110 112 114 115 116 117 118 118 118 118 117 117 117 116 115 114 113 111 110 110 110
80 80 80 82 83 85 87 89 91 94 96 98 99 101 103 105 105 107 108 110 111 113 114 114 115 115 116 116 116 115 115 115 114 114 113 112 112 110 109 108 108 108
82 82 83 84 86 88 89 92 94 97 99 101 102 104 107 108 109 111 112 113 114 114 114 114 114 114 113 113 113 113 113 113 112 112 112 111 110 108 107 107 106 106
85 85 86 87 89 91 93 95 97 100 102 103 105 107 109 111 112 114 114 114 114 114 114 113 113 112 112 112 112 112 112 112 111 111 111 110 109 107 106 105 105 105
87 88 89 91 92 94 96 98 101 103 104 106 108 110 112 113 114 115 115 115 114 114 113 113 112 112 112 112 111 111 111 111 111 111 110 109 107 106 105 104 104 105
90 91 92 94 95 97 99 102 104 106 107 109 111 113 114 114 115 115 115 114 113 113 113 112 112 112 112 112 111 111 110 110 110 110 109 108 106 105 104 104 104 104
93 94 96 97 99 100 102 105 106 108 110 112 114 115 115 115 114 114 114 113 113 113 113 113 113 112 112 111 111 110 109 109 109 108 107 106 105 104 104 103 103 103
95 97 99 100 101 103 105 107 109 111 113 114 115 115 115 114 114 113 113 112 112 112 112 112 112 111 111 110 109 109 109 108 108 107 105 104 104 103 103 102 102 102
98 99 101 103 104 106 108 110 112 113 114 115 115 115 114 114 113 113 112 112 111 111 111 111 110 109 109 108 108 108 107 107 106 105 104 103 102 102 101 101 101 101
101 102 104 106 108 109 111 113 114 115 115 115 114 114 113 113 112 112 111 111 110 110 109 108 108 107 107 107 107 107 106 105 104 103 102 101 100 100 100 100 100 100
104 105 107 109 111 113 114 115 116 115 115 114 113 112 112 112 111 111 110 110 109 108 107 107 106 106 106 106 105 105 103 102 101 100 100 99 99 99 99 99 99 98
107 109 111 113 114 116 116 116 116 115 114 112 112 111 111 110 110 109 109 108 107 106 106 106 106 105 105 104 104 102 101 100 99 99 98 97 97 97 97 97 97 96
110 112 114 116 117 117 117 116 115 113 112 111 111 110 109 109 108 108 107 106 105 105 105 105 104 104 103 103 101 100 99 98 97 97 96 96 95 95 95 95 94 94
114 115 116 117 117 116 115 114 113 112 111 110 109 109 108 107 107 106 105 104 104 104 104 103 103 102 102 101 99 98 97 96 95 95 94 93 93 92 92 92 92 92
116 117 117 116 115 114 113 112 111 110 110 109 108 107 106 106 105 104 104 103 103 103 102 101 101 100 100 98 97 96 95 94 92 92 91 91 90 89 89 89 89 89
116 116 115 114 113 112 111 110 109 109 108 107 106 106 105 104 104 103 102 102 101 101 100 99 98 98 97 96 95 94 93 91 89 88 87 87 87 86 86 86 87 86
115 114 113 112 111 110 109 108 107 106 106 105 105 104 103 102 102 101 100 100 99 98 97 96 96 95 95 94 93 92 90 88 85 84 83 83 83 83 83 83 84 83
112 111 110 109 109 108 107 106 105 105 104 103 103 102 101 100 99 98 98 97 96 95 94 94 93 93 93 92 90 88 86 84 82 81 80 80 80 80 80 80 80 80
110 109 108 107 106 105 105 104 103 103 102 102 101 99 98 97 96 95 94 93 93 92 91 91 91 91 90 88 86 84 82 80 79 78 78 78 79 79 79 79 79 79
108 107 106 105 104 104 103 102 102 101 100 99 98 96 95 94 93 92 91 90 90 89 89 88 88 88 87 85 83 81 80 79 78 78 78 78 79 79 79 78 79 80
105 104 104 103 103 103 102 101 99 98 97 96 94 93 92 90 89 88 88 87 87 87 86 85 84 84 84 83 81 80 79 78 77 77 78 78 78 78 78 78 79 79